Regional Weather Roundup
Issued by NWS

Current Version | Previous Version | Text Only | Print | Product List | Glossary Off
Versions: 1 2 3 4 5 6 7 8 9 10 11 12 13 14 15 16 17 18 19 20 21 22 23 24 25 26 27 28 29 30 31 32 33 34 35 36 37 38 39 40 41 42 43 44 45 46 47 48 49 50

000
ASUS42 KFFC 111210
RWRGA
WEATHER ROUNDUP FOR GEORGIA
NATIONAL WEATHER SERVICE PEACHTREE CITY GA
700 AM EST MON DEC 11 2017

NOTE: "FAIR" INDICATES FEW OR NO CLOUDS BELOW 12,000 FEET WITH NO
SIGNIFICANT WEATHER AND/OR OBSTRUCTIONS TO VISIBILITY.

* = USE WITH CAUTION. THE STATIONS MARKED WITH AN ASTERISK MAY NOT
REPORT WEATHER SUCH AS PRECIPITATION, FOG, OR THUNDER AND ARE NOT
QUALITY CONTROLLED BY NWS.

THE REMARK "TC" DENOTES TEMPERATURE READING IN DEGREES CELSIUS.

GAZ001>058-111300-
NORTH GEORGIA

CITY           SKY/WX    TMP DP  RH WIND       PRES   REMARKS
ATLANTA        CLEAR     31  27  85 NW7       30.18S WCI  24
6HR MIN TEMP:  31; 6HR MAX TEMP:  35;

ATHENS         CLEAR    N/A N/A N/A W3        30.18R
CHAMBLEE       CLEAR     27  24  89 CALM      30.19R
6HR MIN TEMP:  27; 6HR MAX TEMP:  33;

PEACHTREE CITY CLEAR     28  26  92 CALM      30.21R
6HR MIN TEMP:  27; 6HR MAX TEMP:  29;

ROME           CLEAR     27  25  92 CALM      30.20R
6HR MIN TEMP:  25; 6HR MAX TEMP:  29;

WEST ATLANTA   CLEAR     27  26  96 CALM      30.20R
6HR MIN TEMP:  26; 6HR MAX TEMP:  30;

GAINESVILLE    CLEAR     34  27  75 W10       30.16S WCI  26
6HR MIN TEMP:  34; 6HR MAX TEMP:  35;

CARTERSVILLE   CLEAR     23  23 100 CALM      30.21R
6HR MIN TEMP:  22; 6HR MAX TEMP:  26;



CITY           SKY/WX    TMP DP  RH WIND       PRES   REMARKS
DALTON*        CLEAR     27  27 100 CALM      30.21S
LAWRENCEVILLE* CLEAR     32  27  81 W7        30.18R WCI  26
MARIETTA       CLEAR     26  24  91 CALM      30.18R
KENNESAW*      CLEAR     25  23  92 CALM      30.21
CANTON*        CLEAR     32  30  93 CALM      30.18S
$$

GAZ059>098-102>109-111300-
CENTRAL GEORGIA

CITY           SKY/WX    TMP DP  RH WIND       PRES   REMARKS
AUGUSTA-BUSH   CLEAR     33  27  78 W5        30.19R WCI  29
6HR MIN TEMP:  26; 6HR MAX TEMP:  36;

AUGUSTA-DANIEL CLEAR     36  27  69 VRB3      30.18S
6HR MIN TEMP:  36; 6HR MAX TEMP:  39;

COLUMBUS       CLEAR     31  27  85 CALM      30.24S
6HR MIN TEMP:  30; 6HR MAX TEMP:  34;

MACON          CLEAR     29  27  92 CALM      30.23R
6HR MIN TEMP:  28; 6HR MAX TEMP:  34;

ROBINS AFB     CLEAR     29  27  92 CALM      30.23R


CITY           SKY/WX    TMP DP  RH WIND       PRES   REMARKS
LAGRANGE*      CLEAR     27  26  98 CALM      30.22S
SYLVANIA*      CLEAR     34  31  89 SW5       30.22R WCI  29
MILLEDGEVILLE* CLEAR     32  30  93 CALM      30.22R
$$

GAZ099>101-110>166-111300-
SOUTH GEORGIA

CITY           SKY/WX    TMP DP  RH WIND       PRES   REMARKS
SAVANNAH       CLEAR     31  28  89 W5        30.25R WCI  26
6HR MIN TEMP:  31; 6HR MAX TEMP:  35;

VALDOSTA       CLEAR     27  25  92 CALM      30.29R
6HR MIN TEMP:  27; 6HR MAX TEMP:  30;

ALMA           CLEAR     30  27  88 SW3       30.26R
6HR MIN TEMP:  29; 6HR MAX TEMP:  31;

ST SIMONS      CLEAR     37  31  78 W5        30.26S WCI  33
6HR MIN TEMP:  36; 6HR MAX TEMP:  41;

FT STEWART     CLEAR     30  27  89 CALM        N/A
ALBANY         CLEAR     29  26  89 CALM      30.29R
HUNTER AFB     CLEAR     32  27  81 SW3       30.22R
MOODY AFB      CLEAR     29  27  89 CALM      30.27R
BRUNSWICK      CLEAR     32  30  93 W5        30.27S WCI  27


CITY           SKY/WX    TMP DP  RH WIND       PRES   REMARKS
BAINBRIDGE*    CLEAR     32  32 100 CALM      30.29S
MOULTRIE*        N/A     32  32 100 CALM      30.28S
VIDALIA*       CLEAR     32  30  93 SW5       30.23S WCI  27
WAYCROSS*      CLEAR     29  27  90 SW3       30.28R
DOUGLAS*       CLEAR     30  30 100 SW3       30.28R
$$



USA.gov is the U.S. government's official web portal to all federal, state and local government web resources and services.